Time,TemperatureF,DewpointF,PressureIn,WindDirection,WindDirectionDegrees,WindSpeedMPH,WindSpeedGustMPH,Humidity,HourlyPrecipIn,Conditions,Clouds,dailyrainin,SoftwareType,DateUTC
2013-09-13 00:02:00,71.1,62.8,29.91,WSW,244,9.2,9.2,75,0.00,CLR,,0.00,WeatherDisplay:10.37,2013-09-13 07:02:00,
2013-09-13 00:07:00,71.2,62.9,29.90,South,188,3.5,3.5,75,0.00,CLR,,0.00,WeatherDisplay:10.37,2013-09-13 07:07:00,
2013-09-13 00:12:00,71.4,62.7,29.90,South,180,1.1,1.1,74,0.00,CLR,,0.00,WeatherDisplay:10.37,2013-09-13 07:12:00,
2013-09-13 00:17:00,71.6,62.9,29.90,South,173,1.1,1.1,74,0.00,CLR,,0.00,WeatherDisplay:10.37,2013-09-13 07:17:00,
2013-09-13 00:22:00,71.5,62.8,29.90,SSE,167,3.5,3.5,74,0.00,CLR,,0.00,WeatherDisplay:10.37,2013-09-13 07:22:00,
2013-09-13 00:27:00,71.1,62.4,29.90,SSE,168,1.1,1.1,74,0.00,CLR,,0.00,WeatherDisplay:10.37,2013-09-13 07:27:00,
2013-09-13 00:32:00,70.7,62.4,29.90,SSE,168,1.1,1.1,75,0.00,CLR,,0.00,WeatherDisplay:10.37,2013-09-13 07:32:00,
2013-09-13 00:37:00,70.4,62.5,29.90,SSE,168,2.3,2.3,76,0.00,CLR,,0.00,WeatherDisplay:10.37,2013-09-13 07:37:00,
2013-09-13 00:42:00,70.2,62.3,29.90,SSW,196,4.6,4.6,76,0.00,CLR,,0.00,WeatherDisplay:10.37,2013-09-13 07:42:00,
2013-09-13 00:47:00,70.2,62.3,29.90,SSE,158,8.1,8.1,76,0.00,CLR,,0.00,WeatherDisplay:10.37,2013-09-13 07:47:00,
2013-09-13 00:52:00,70.1,62.2,29.90,South,173,6.9,6.9,76,0.00,CLR,,0.00,WeatherDisplay:10.37,2013-09-13 07:52:00,
2013-09-13 00:57:00,69.9,62.4,29.90,SSE,166,4.6,4.6,77,0.00,CLR,,0.00,WeatherDisplay:10.37,2013-09-13 07:57:00,
2013-09-13 01:02:00,69.8,62.3,29.90,SSE,165,3.5,3.5,77,0.00,CLR,,0.00,WeatherDisplay:10.37,2013-09-13 08:02:00,
2013-09-13 01:07:00,69.7,62.2,29.91,SSE,165,3.5,3.5,77,0.00,CLR,,0.00,WeatherDisplay:10.37,2013-09-13 08:07:00,
2013-09-13 01:12:00,69.5,62.3,29.91,SSE,167,5.0,5.0,78,0.00,CLR,,0.00,WeatherDisplay:10.37,2013-09-13 08:12:00,
2013-09-13 01:17:00,69.5,62.7,29.91,SSE,166,4.6,4.6,79,0.00,CLR,,0.00,WeatherDisplay:10.37,2013-09-13 08:17:00,
2013-09-13 01:22:00,69.4,62.6,29.91,South,169,8.1,8.1,79,0.00,CLR,,0.00,WeatherDisplay:10.37,2013-09-13 08:22:00,
2013-09-13 01:27:00,69.4,62.6,29.91,SSW,207,4.0,4.0,79,0.00,CLR,,0.00,WeatherDisplay:10.37,2013-09-13 08:27:00,
2013-09-13 01:32:00,69.0,62.9,29.91,South,172,5.8,5.8,81,0.00,CLR,,0.00,WeatherDisplay:10.37,2013-09-13 08:32:00,
2013-09-13 01:37:00,69.0,62.6,29.91,South,190,3.5,3.5,80,0.00,CLR,,0.00,WeatherDisplay:10.37,2013-09-13 08:37:00,
2013-09-13 01:42:00,68.6,62.5,29.91,South,190,3.5,3.5,81,0.00,CLR,,0.00,WeatherDisplay:10.37,2013-09-13 08:42:00,
2013-09-13 01:47:00,68.1,62.0,29.91,SSE,168,3.5,3.5,81,0.00,CLR,,0.00,WeatherDisplay:10.37,2013-09-13 08:47:00,
2013-09-13 01:52:00,67.7,61.3,29.91,SSW,198,2.3,2.3,80,0.00,CLR,,0.00,WeatherDisplay:10.37,2013-09-13 08:52:00,
2013-09-13 01:57:00,67.4,61.0,29.91,SSW,194,3.5,3.5,80,0.00,CLR,,0.00,WeatherDisplay:10.37,2013-09-13 08:57:00,
2013-09-13 02:02:00,67.3,61.6,29.91,South,172,9.0,9.0,82,0.00,CLR,,0.00,WeatherDisplay:10.37,2013-09-13 09:02:00,
2013-09-13 02:07:00,67.7,61.7,29.91,South,183,9.2,9.2,81,0.00,CLR,,0.00,WeatherDisplay:10.37,2013-09-13 09:07:00,
2013-09-13 02:12:00,67.8,61.8,29.91,South,171,9.2,9.2,81,0.00,CLR,,0.00,WeatherDisplay:10.37,2013-09-13 09:12:00,
2013-09-13 02:17:00,68.0,61.9,29.91,SSE,167,11.5,11.5,81,0.00,CLR,,0.00,WeatherDisplay:10.37,2013-09-13 09:17:00,
2013-09-13 02:22:00,68.0,61.6,29.91,South,182,5.0,5.0,80,0.00,CLR,,0.00,WeatherDisplay:10.37,2013-09-13 09:22:00,
2013-09-13 02:28:00,68.0,61.6,29.91,South,186,6.9,6.9,80,0.00,CLR,,0.00,WeatherDisplay:10.37,2013-09-13 09:28:00,
2013-09-13 02:32:00,68.2,61.4,29.90,SSE,158,8.1,8.1,79,0.00,CLR,,0.00,WeatherDisplay:10.37,2013-09-13 09:32:00,
2013-09-13 02:38:00,68.2,61.1,29.90,SSE,160,5.8,5.8,78,0.00,CLR,,0.00,WeatherDisplay:10.37,2013-09-13 09:38:00,
2013-09-13 02:43:00,67.9,61.1,29.91,South,188,3.5,3.5,79,0.00,CLR,,0.00,WeatherDisplay:10.37,2013-09-13 09:43:00,
2013-09-13 02:48:00,67.5,60.8,29.91,SSE,158,4.0,4.0,79,0.00,CLR,,0.00,WeatherDisplay:10.37,2013-09-13 09:48:00,
2013-09-13 02:53:00,67.3,60.9,29.91,SSE,167,6.0,6.0,80,0.00,CLR,,0.00,WeatherDisplay:10.37,2013-09-13 09:53:00,
2013-09-13 02:58:00,67.5,60.8,29.91,South,171,6.0,6.0,79,0.00,CLR,,0.00,WeatherDisplay:10.37,2013-09-13 09:58:00,
2013-09-13 03:03:00,67.7,60.6,29.91,South,171,3.5,3.5,78,0.00,CLR,,0.00,WeatherDisplay:10.37,2013-09-13 10:03:00,
2013-09-13 03:08:00,67.5,60.8,29.91,South,171,2.3,2.3,79,0.00,CLR,,0.00,WeatherDisplay:10.37,2013-09-13 10:08:00,
2013-09-13 03:13:00,66.9,60.2,29.91,South,171,3.5,3.5,79,0.00,CLR,,0.00,WeatherDisplay:10.37,2013-09-13 10:13:00,
2013-09-13 03:18:00,66.9,60.5,29.90,South,170,4.6,4.6,80,0.00,CLR,,0.00,WeatherDisplay:10.37,2013-09-13 10:18:00,
2013-09-13 03:23:00,66.7,60.3,29.90,South,183,3.5,3.5,80,0.00,CLR,,0.00,WeatherDisplay:10.37,2013-09-13 10:23:00,
2013-09-13 03:28:00,66.3,59.9,29.90,SSW,205,3.5,3.5,80,0.00,CLR,,0.00,WeatherDisplay:10.37,2013-09-13 10:28:00,
2013-09-13 03:33:00,66.0,60.0,29.90,SSW,211,3.5,3.5,81,0.00,CLR,,0.00,WeatherDisplay:10.37,2013-09-13 10:33:00,
2013-09-13 03:38:00,65.7,60.1,29.90,SSW,197,4.0,4.0,82,0.00,CLR,,0.00,WeatherDisplay:10.37,2013-09-13 10:38:00,
2013-09-13 03:43:00,65.8,60.2,29.90,South,181,3.5,3.5,82,0.00,CLR,,0.00,WeatherDisplay:10.37,2013-09-13 10:43:00,
2013-09-13 03:48:00,66.1,60.4,29.90,South,172,8.1,8.1,82,0.00,CLR,,0.00,WeatherDisplay:10.37,2013-09-13 10:48:00,
2013-09-13 03:53:00,66.6,60.6,29.90,South,174,8.1,8.1,81,0.00,CLR,,0.00,WeatherDisplay:10.37,2013-09-13 10:53:00,
2013-09-13 03:58:00,67.4,60.7,29.90,SSE,166,7.0,7.0,79,0.00,CLR,,0.00,WeatherDisplay:10.37,2013-09-13 10:58:00,
2013-09-13 04:03:00,67.8,60.7,29.90,SSE,157,5.8,5.8,78,0.00,CLR,,0.00,WeatherDisplay:10.37,2013-09-13 11:03:00,
2013-09-13 04:08:00,67.9,60.8,29.90,SSE,153,6.9,6.9,78,0.00,CLR,,0.00,WeatherDisplay:10.37,2013-09-13 11:08:00,
2013-09-13 04:13:00,68.1,61.0,29.90,SSE,161,9.2,9.2,78,0.00,CLR,,0.00,WeatherDisplay:10.37,2013-09-13 11:13:00,
2013-09-13 04:18:00,68.5,61.0,29.90,South,174,9.2,9.2,77,0.00,CLR,,0.00,WeatherDisplay:10.37,2013-09-13 11:18:00,
2013-09-13 04:23:00,68.6,61.1,29.90,South,176,10.4,10.4,77,0.00,CLR,,0.00,WeatherDisplay:10.37,2013-09-13 11:23:00,
2013-09-13 04:28:00,68.8,60.9,29.90,South,172,11.5,11.5,76,0.00,CLR,,0.00,WeatherDisplay:10.37,2013-09-13 11:28:00,
2013-09-13 04:33:00,68.4,60.9,29.90,SSE,168,5.0,5.0,77,0.00,CLR,,0.00,WeatherDisplay:10.37,2013-09-13 11:33:00,
2013-09-13 04:38:00,67.9,60.4,29.89,South,184,5.8,5.8,77,0.00,CLR,,0.00,WeatherDisplay:10.37,2013-09-13 11:38:00,
2013-09-13 04:43:00,67.6,60.9,29.90,SSW,205,2.3,2.3,79,0.00,CLR,,0.00,WeatherDisplay:10.37,2013-09-13 11:43:00,
2013-09-13 04:48:00,67.5,60.8,29.89,South,172,2.3,2.3,79,0.00,CLR,,0.00,WeatherDisplay:10.37,2013-09-13 11:48:00,
2013-09-13 04:53:00,67.4,60.7,29.89,SSW,206,3.5,3.5,79,0.00,CLR,,0.00,WeatherDisplay:10.37,2013-09-13 11:53:00,
2013-09-13 04:58:00,67.0,60.3,29.89,South,187,3.5,3.5,79,0.00,CLR,,0.00,WeatherDisplay:10.37,2013-09-13 11:58:00,
2013-09-13 05:03:00,67.3,60.6,29.89,SSE,161,9.2,9.2,79,0.00,CLR,,0.00,WeatherDisplay:10.37,2013-09-13 12:03:00,
2013-09-13 05:08:00,68.0,60.5,29.90,South,174,6.9,6.9,77,0.00,CLR,,0.00,WeatherDisplay:10.37,2013-09-13 12:08:00,
2013-09-13 05:13:00,68.3,60.8,29.90,South,190,8.1,8.1,77,0.00,CLR,,0.00,WeatherDisplay:10.37,2013-09-13 12:13:00,
2013-09-13 05:18:00,68.2,60.7,29.90,SSE,168,6.9,6.9,77,0.00,CLR,,0.00,WeatherDisplay:10.37,2013-09-13 12:18:00,
2013-09-13 05:23:00,67.5,60.0,29.90,South,177,3.5,3.5,77,0.00,CLR,,0.00,WeatherDisplay:10.37,2013-09-13 12:23:00,
2013-09-13 05:28:00,66.8,60.1,29.90,SSE,163,3.5,3.5,79,0.00,CLR,,0.00,WeatherDisplay:10.37,2013-09-13 12:28:00,
2013-09-13 05:33:00,66.3,59.9,29.89,SSW,208,3.5,3.5,80,0.00,CLR,,0.00,WeatherDisplay:10.37,2013-09-13 12:33:00,
2013-09-13 05:38:00,66.0,59.7,29.90,South,178,3.5,3.5,80,0.00,CLR,,0.00,WeatherDisplay:10.37,2013-09-13 12:38:00,
2013-09-13 05:43:00,65.7,59.7,29.89,South,176,3.5,3.5,81,0.00,CLR,,0.00,WeatherDisplay:10.37,2013-09-13 12:43:00,
2013-09-13 05:48:00,65.3,59.7,29.90,South,176,3.5,3.5,82,0.00,CLR,,0.00,WeatherDisplay:10.37,2013-09-13 12:48:00,
2013-09-13 05:53:00,65.1,59.5,29.90,South,176,3.5,3.5,82,0.00,CLR,,0.00,WeatherDisplay:10.37,2013-09-13 12:53:00,
2013-09-13 05:58:00,65.2,59.9,29.90,SW,232,4.6,4.6,83,0.00,CLR,,0.00,WeatherDisplay:10.37,2013-09-13 12:58:00,
2013-09-13 06:03:00,65.1,59.5,29.90,SSW,213,4.6,4.6,82,0.00,CLR,,0.00,WeatherDisplay:10.37,2013-09-13 13:03:00,
2013-09-13 06:08:00,64.9,59.6,29.90,SSW,207,3.5,3.5,83,0.00,CLR,,0.00,WeatherDisplay:10.37,2013-09-13 13:08:00,
2013-09-13 06:13:00,64.8,59.5,29.90,South,181,4.0,4.0,83,0.00,CLR,,0.00,WeatherDisplay:10.37,2013-09-13 13:13:00,
2013-09-13 06:18:00,64.8,59.2,29.90,SW,214,6.9,6.9,82,0.00,CLR,,0.00,WeatherDisplay:10.37,2013-09-13 13:18:00,
2013-09-13 06:23:00,64.8,59.2,29.90,WSW,245,4.6,4.6,82,0.00,CLR,,0.00,WeatherDisplay:10.37,2013-09-13 13:23:00,
2013-09-13 06:28:00,65.8,59.8,29.91,SSE,168,6.9,6.9,81,0.00,CLR,,0.00,WeatherDisplay:10.37,2013-09-13 13:28:00,
2013-09-13 06:33:00,65.6,59.3,29.91,SSE,168,6.9,6.9,80,0.00,CLR,,0.00,WeatherDisplay:10.37,2013-09-13 13:33:00,
2013-09-13 06:38:00,64.6,59.0,29.91,South,175,9.2,9.2,82,0.00,CLR,,0.00,WeatherDisplay:10.37,2013-09-13 13:38:00,
2013-09-13 06:43:00,63.8,58.5,29.91,South,185,4.6,4.6,83,0.00,CLR,,0.00,WeatherDisplay:10.37,2013-09-13 13:43:00,
2013-09-13 06:48:00,63.5,58.2,29.91,South,175,2.3,2.3,83,0.00,CLR,,0.00,WeatherDisplay:10.37,2013-09-13 13:48:00,
2013-09-13 06:53:00,63.1,57.9,29.91,South,175,3.5,3.5,83,0.00,CLR,,0.00,WeatherDisplay:10.37,2013-09-13 13:53:00,
2013-09-13 06:58:00,62.4,57.5,29.91,South,175,2.3,2.3,84,0.00,CLR,,0.00,WeatherDisplay:10.37,2013-09-13 13:58:00,
2013-09-13 07:03:00,62.1,57.5,29.91,South,175,2.3,2.3,85,0.00,CLR,,0.00,WeatherDisplay:10.37,2013-09-13 14:03:00,
2013-09-13 07:08:00,62.0,57.4,29.91,South,187,3.5,3.5,85,0.00,CLR,,0.00,WeatherDisplay:10.37,2013-09-13 14:08:00,
2013-09-13 07:13:00,62.1,57.5,29.91,South,185,3.5,3.5,85,0.00,CLR,,0.00,WeatherDisplay:10.37,2013-09-13 14:13:00,
2013-09-13 07:18:00,62.4,57.5,29.91,South,188,2.3,2.3,84,0.00,CLR,,0.00,WeatherDisplay:10.37,2013-09-13 14:18:00,
2013-09-13 07:23:00,62.8,57.6,29.91,SSW,198,2.3,2.3,83,0.00,CLR,,0.00,WeatherDisplay:10.37,2013-09-13 14:23:00,
2013-09-13 07:28:00,63.1,57.5,29.91,SSW,194,3.5,3.5,82,0.00,CLR,,0.00,WeatherDisplay:10.37,2013-09-13 14:28:00,
2013-09-13 07:33:00,63.4,57.8,29.91,SSW,197,3.5,3.5,82,0.00,CLR,,0.00,WeatherDisplay:10.37,2013-09-13 14:33:00,
2013-09-13 07:38:00,63.6,58.0,29.91,SSW,192,3.5,3.5,82,0.00,CLR,,0.00,WeatherDisplay:10.37,2013-09-13 14:38:00,
2013-09-13 07:43:00,63.6,58.0,29.91,SSW,192,2.3,2.3,82,0.00,CLR,,0.00,WeatherDisplay:10.37,2013-09-13 14:43:00,
2013-09-13 07:48:00,63.8,58.2,29.92,SSW,192,3.5,3.5,82,0.00,CLR,,0.00,WeatherDisplay:10.37,2013-09-13 14:48:00,
2013-09-13 07:53:00,64.1,58.5,29.91,SW,235,4.6,4.6,82,0.00,CLR,,0.00,WeatherDisplay:10.37,2013-09-13 14:53:00,
2013-09-13 07:58:00,64.4,58.4,29.91,SW,235,1.1,1.1,81,0.00,CLR,,0.00,WeatherDisplay:10.37,2013-09-13 14:58:00,
2013-09-13 08:03:00,64.9,58.6,29.91,SW,222,3.5,3.5,80,0.00,CLR,,0.00,WeatherDisplay:10.37,2013-09-13 15:03:00,
2013-09-13 08:08:00,65.5,58.8,29.91,SSW,196,1.1,0.0,79,0.00,CLR,,0.00,WeatherDisplay:10.37,2013-09-13 15:08:00,
2013-09-13 08:13:00,66.4,59.0,29.91,SSW,196,3.5,3.5,77,0.00,CLR,,0.00,WeatherDisplay:10.37,2013-09-13 15:13:00,
2013-09-13 08:18:00,67.0,59.2,29.91,South,184,3.5,3.5,76,0.00,CLR,,0.00,WeatherDisplay:10.37,2013-09-13 15:18:00,
2013-09-13 08:23:00,67.7,59.5,29.91,South,176,5.8,5.8,75,0.00,CLR,,0.00,WeatherDisplay:10.37,2013-09-13 15:23:00,
2013-09-13 08:29:00,68.9,59.9,29.92,South,172,6.9,6.9,73,0.00,CLR,,0.00,WeatherDisplay:10.37,2013-09-13 15:29:00,
2013-09-13 08:34:00,69.9,60.1,29.91,South,185,3.5,3.5,71,0.00,CLR,,0.00,WeatherDisplay:10.37,2013-09-13 15:34:00,
2013-09-13 08:39:00,71.0,60.3,29.92,South,188,3.5,3.5,69,0.00,CLR,,0.00,WeatherDisplay:10.37,2013-09-13 15:39:00,
2013-09-13 08:44:00,71.7,61.0,29.91,SW,223,3.5,3.5,69,0.00,CLR,,0.00,WeatherDisplay:10.37,2013-09-13 15:44:00,
2013-09-13 08:49:00,72.3,60.7,29.91,SSW,212,5.8,5.8,67,0.00,CLR,,0.00,WeatherDisplay:10.37,2013-09-13 15:49:00,
2013-09-13 08:54:00,72.8,60.8,29.91,SSW,212,4.6,4.6,66,0.00,CLR,,0.00,WeatherDisplay:10.37,2013-09-13 15:54:00,
2013-09-13 08:59:00,73.1,61.1,29.91,SW,230,4.6,4.6,66,0.00,CLR,,0.00,WeatherDisplay:10.37,2013-09-13 15:59:00,
2013-09-13 09:04:00,73.4,60.9,29.92,SW,215,5.8,5.8,65,0.00,CLR,,0.00,WeatherDisplay:10.37,2013-09-13 16:04:00,
2013-09-13 09:09:00,73.7,61.2,29.91,SSW,201,4.0,4.0,65,0.00,CLR,,0.00,WeatherDisplay:10.37,2013-09-13 16:09:00,
2013-09-13 09:14:00,74.1,60.7,29.91,WNW,283,6.9,6.9,63,0.00,CLR,,0.00,WeatherDisplay:10.37,2013-09-13 16:14:00,
2013-09-13 09:19:00,74.3,60.4,29.91,West,277,10.0,10.0,62,0.00,CLR,,0.00,WeatherDisplay:10.37,2013-09-13 16:19:00,
2013-09-13 09:24:00,74.5,61.1,29.91,SW,227,7.0,7.0,63,0.00,CLR,,0.00,WeatherDisplay:10.37,2013-09-13 16:24:00,
2013-09-13 09:29:00,74.8,61.4,29.92,WSW,241,5.8,5.8,63,0.00,CLR,,0.00,WeatherDisplay:10.37,2013-09-13 16:29:00,
2013-09-13 09:34:00,75.2,61.3,29.91,WSW,251,3.5,3.5,62,0.00,CLR,,0.00,WeatherDisplay:10.37,2013-09-13 16:34:00,
2013-09-13 09:39:00,75.3,60.5,29.91,WSW,255,9.2,9.2,60,0.00,CLR,,0.00,WeatherDisplay:10.37,2013-09-13 16:39:00,
2013-09-13 09:44:00,75.4,60.5,29.91,WSW,246,9.2,9.2,60,0.00,CLR,,0.00,WeatherDisplay:10.37,2013-09-13 16:44:00,
2013-09-13 09:49:00,75.7,60.8,29.91,SW,222,8.1,8.1,60,0.00,CLR,,0.00,WeatherDisplay:10.37,2013-09-13 16:49:00,
2013-09-13 09:54:00,75.9,60.5,29.91,WSW,244,8.1,8.1,59,0.00,CLR,,0.00,WeatherDisplay:10.37,2013-09-13 16:54:00,
2013-09-13 09:59:00,76.3,59.9,29.91,West,267,9.2,9.2,57,0.00,CLR,,0.00,WeatherDisplay:10.37,2013-09-13 16:59:00,
2013-09-13 10:04:00,76.6,60.2,29.91,West,263,9.2,9.2,57,0.00,CLR,,0.00,WeatherDisplay:10.37,2013-09-13 17:04:00,
2013-09-13 10:09:00,77.0,59.6,29.91,WSW,251,11.0,11.0,55,0.00,CLR,,0.00,WeatherDisplay:10.37,2013-09-13 17:09:00,
2013-09-13 10:14:00,77.1,60.2,29.91,WSW,251,12.7,12.7,56,0.00,CLR,,0.00,WeatherDisplay:10.37,2013-09-13 17:14:00,
2013-09-13 10:19:00,77.5,60.6,29.91,WNW,290,9.2,9.2,56,0.00,CLR,,0.00,WeatherDisplay:10.37,2013-09-13 17:19:00,
2013-09-13 10:24:00,77.9,60.9,29.91,West,280,10.4,10.4,56,0.00,CLR,,0.00,WeatherDisplay:10.37,2013-09-13 17:24:00,
2013-09-13 10:29:00,77.7,60.8,29.91,WSW,258,11.5,11.5,56,0.00,CLR,,0.00,WeatherDisplay:10.37,2013-09-13 17:29:00,
2013-09-13 10:34:00,77.6,60.2,29.90,WNW,282,11.5,11.5,55,0.00,CLR,,0.00,WeatherDisplay:10.37,2013-09-13 17:34:00,
2013-09-13 10:39:00,77.4,60.5,29.90,West,265,13.8,13.8,56,0.00,CLR,,0.00,WeatherDisplay:10.37,2013-09-13 17:39:00,
2013-09-13 10:44:00,77.8,60.8,29.91,WNW,289,11.5,11.5,56,0.00,CLR,,0.00,WeatherDisplay:10.37,2013-09-13 17:44:00,
2013-09-13 10:49:00,78.1,61.1,29.90,WNW,302,11.5,11.5,56,0.00,CLR,,0.00,WeatherDisplay:10.37,2013-09-13 17:49:00,
2013-09-13 10:54:00,77.9,60.9,29.90,West,261,13.8,13.8,56,0.00,CLR,,0.00,WeatherDisplay:10.37,2013-09-13 17:54:00,
2013-09-13 10:59:00,78.0,61.0,29.90,West,279,15.0,15.0,56,0.00,CLR,,0.00,WeatherDisplay:10.37,2013-09-13 17:59:00,
2013-09-13 11:04:00,78.3,61.3,29.90,WNW,282,9.0,16.0,56,0.00,CLR,,0.00,WeatherDisplay:10.37,2013-09-13 18:04:00,
2013-09-13 11:09:00,78.4,61.4,29.90,WNW,298,13.8,13.8,56,0.00,CLR,,0.00,WeatherDisplay:10.37,2013-09-13 18:09:00,
2013-09-13 11:14:00,78.3,61.8,29.90,NW,304,10.4,10.4,57,0.00,CLR,,0.00,WeatherDisplay:10.37,2013-09-13 18:14:00,
2013-09-13 11:19:00,78.6,61.6,29.89,WNW,292,8.0,14.0,56,0.00,CLR,,0.00,WeatherDisplay:10.37,2013-09-13 18:19:00,
2013-09-13 11:24:00,78.9,61.4,29.89,WNW,283,12.7,12.7,55,0.00,CLR,,0.00,WeatherDisplay:10.37,2013-09-13 18:24:00,
2013-09-13 11:29:00,79.6,61.0,29.89,WNW,283,13.8,13.8,53,0.00,CLR,,0.00,WeatherDisplay:10.37,2013-09-13 18:29:00,
2013-09-13 11:34:00,79.3,61.2,29.89,WNW,292,8.0,14.0,54,0.00,CLR,,0.00,WeatherDisplay:10.37,2013-09-13 18:34:00,
2013-09-13 11:39:00,79.4,61.3,29.89,WNW,303,11.5,11.5,54,0.00,CLR,,0.00,WeatherDisplay:10.37,2013-09-13 18:39:00,
2013-09-13 11:44:00,79.6,61.0,29.89,WNW,287,8.0,14.0,53,0.00,CLR,,0.00,WeatherDisplay:10.37,2013-09-13 18:44:00,
2013-09-13 11:49:00,80.4,61.2,29.89,West,281,8.0,14.0,52,0.00,CLR,,0.00,WeatherDisplay:10.37,2013-09-13 18:49:00,
2013-09-13 11:54:00,80.3,61.6,29.89,WNW,285,11.5,11.5,53,0.00,CLR,,0.00,WeatherDisplay:10.37,2013-09-13 18:54:00,
2013-09-13 11:59:00,80.4,61.2,29.88,WNW,289,8.0,12.0,52,0.00,CLR,,0.00,WeatherDisplay:10.37,2013-09-13 18:59:00,
2013-09-13 12:04:00,81.0,62.3,29.89,WNW,284,13.8,13.8,53,0.00,CLR,,0.00,WeatherDisplay:10.37,2013-09-13 19:04:00,
2013-09-13 12:09:00,80.5,61.8,29.88,West,265,10.4,10.4,53,0.00,CLR,,0.00,WeatherDisplay:10.37,2013-09-13 19:09:00,
2013-09-13 12:14:00,80.8,61.5,29.88,WNW,291,6.0,13.0,52,0.00,CLR,,0.00,WeatherDisplay:10.37,2013-09-13 19:14:00,
2013-09-13 12:19:00,81.3,62.0,29.88,WNW,282,13.0,13.0,52,0.00,CLR,,0.00,WeatherDisplay:10.37,2013-09-13 19:19:00,
2013-09-13 12:24:00,81.2,62.5,29.88,WNW,285,8.0,13.0,53,0.00,CLR,,0.00,WeatherDisplay:10.37,2013-09-13 19:24:00,
2013-09-13 12:29:00,81.6,62.3,29.88,WNW,284,7.0,10.0,52,0.00,CLR,,0.00,WeatherDisplay:10.37,2013-09-13 19:29:00,
2013-09-13 12:34:00,81.9,62.0,29.88,WNW,299,9.2,9.2,51,0.00,CLR,,0.00,WeatherDisplay:10.37,2013-09-13 19:34:00,
2013-09-13 12:39:00,82.0,62.6,29.88,WNW,282,8.0,13.0,52,0.00,CLR,,0.00,WeatherDisplay:10.37,2013-09-13 19:39:00,
2013-09-13 12:44:00,81.8,61.9,29.88,West,279,9.0,13.0,51,0.00,CLR,,0.00,WeatherDisplay:10.37,2013-09-13 19:44:00,
2013-09-13 12:49:00,81.1,61.8,29.87,WNW,289,10.4,10.4,52,0.00,CLR,,0.00,WeatherDisplay:10.37,2013-09-13 19:49:00,
2013-09-13 12:54:00,80.7,62.5,29.87,West,278,8.0,12.0,54,0.00,CLR,,0.00,WeatherDisplay:10.37,2013-09-13 19:54:00,
2013-09-13 12:59:00,80.5,62.3,29.87,WNW,290,9.2,9.2,54,0.00,CLR,,0.00,WeatherDisplay:10.37,2013-09-13 19:59:00,
2013-09-13 13:04:00,81.0,62.3,29.87,WNW,298,5.8,7.1,53,0.00,CLR,,0.00,WeatherDisplay:10.37,2013-09-13 20:04:00,
2013-09-13 13:09:00,81.7,62.3,29.87,West,281,7.0,12.0,52,0.00,CLR,,0.00,WeatherDisplay:10.37,2013-09-13 20:09:00,
2013-09-13 13:14:00,82.3,62.4,29.87,WNW,290,9.2,9.2,51,0.00,CLR,,0.00,WeatherDisplay:10.37,2013-09-13 20:14:00,
2013-09-13 13:19:00,82.6,62.6,29.86,West,278,10.4,10.4,51,0.00,CLR,,0.00,WeatherDisplay:10.37,2013-09-13 20:19:00,
2013-09-13 13:24:00,83.2,62.1,29.86,WNW,283,9.0,13.0,49,0.00,CLR,,0.00,WeatherDisplay:10.37,2013-09-13 20:24:00,
2013-09-13 13:29:00,83.0,61.9,29.86,WNW,287,9.0,14.0,49,0.00,CLR,,0.00,WeatherDisplay:10.37,2013-09-13 20:29:00,
2013-09-13 13:34:00,83.8,62.6,29.86,West,272,11.0,11.0,49,0.00,CLR,,0.00,WeatherDisplay:10.37,2013-09-13 20:34:00,
2013-09-13 13:39:00,84.1,62.9,29.86,WNW,293,8.0,13.0,49,0.00,CLR,,0.00,WeatherDisplay:10.37,2013-09-13 20:39:00,
2013-09-13 13:44:00,84.6,62.1,29.86,WNW,290,9.0,14.0,47,0.00,CLR,,0.00,WeatherDisplay:10.37,2013-09-13 20:44:00,
2013-09-13 13:49:00,84.8,62.9,29.86,NW,317,13.8,13.8,48,0.00,CLR,,0.00,WeatherDisplay:10.37,2013-09-13 20:49:00,
2013-09-13 13:54:00,85.1,62.0,29.85,WNW,287,9.0,14.0,46,0.00,CLR,,0.00,WeatherDisplay:10.37,2013-09-13 20:54:00,
2013-09-13 13:59:00,85.5,62.4,29.85,West,277,13.8,13.8,46,0.00,CLR,,0.00,WeatherDisplay:10.37,2013-09-13 20:59:00,
2013-09-13 14:04:00,86.0,62.8,29.85,NNW,329,11.5,11.5,46,0.00,CLR,,0.00,WeatherDisplay:10.37,2013-09-13 21:04:00,
2013-09-13 14:09:00,86.2,61.1,29.85,West,277,12.7,12.7,43,0.00,CLR,,0.00,WeatherDisplay:10.37,2013-09-13 21:09:00,
2013-09-13 14:14:00,86.2,62.4,29.85,WNW,289,13.0,13.0,45,0.00,CLR,,0.00,WeatherDisplay:10.37,2013-09-13 21:14:00,
2013-09-13 14:19:00,86.2,61.7,29.85,WNW,298,9.0,13.0,44,0.00,CLR,,0.00,WeatherDisplay:10.37,2013-09-13 21:19:00,
2013-09-13 14:24:00,86.5,62.0,29.84,West,272,11.5,11.5,44,0.00,CLR,,0.00,WeatherDisplay:10.37,2013-09-13 21:24:00,
2013-09-13 14:29:00,86.8,60.3,29.84,NW,305,15.0,15.0,41,0.00,CLR,,0.00,WeatherDisplay:10.37,2013-09-13 21:29:00,
2013-09-13 14:34:00,86.6,60.8,29.84,NW,306,8.0,14.0,42,0.00,CLR,,0.00,WeatherDisplay:10.37,2013-09-13 21:34:00,
2013-09-13 14:39:00,86.7,60.9,29.84,WNW,300,10.4,10.4,42,0.00,CLR,,0.00,WeatherDisplay:10.37,2013-09-13 21:39:00,
2013-09-13 14:44:00,86.8,60.9,29.84,WNW,302,6.0,14.0,42,0.00,CLR,,0.00,WeatherDisplay:10.37,2013-09-13 21:44:00,
2013-09-13 14:49:00,86.9,60.3,29.84,NW,305,7.0,15.0,41,0.00,CLR,,0.00,WeatherDisplay:10.37,2013-09-13 21:49:00,
2013-09-13 14:54:00,87.3,59.3,29.83,WNW,283,11.5,11.5,39,0.00,CLR,,0.00,WeatherDisplay:10.37,2013-09-13 21:54:00,
2013-09-13 14:59:00,87.4,59.4,29.83,WNW,283,8.0,12.0,39,0.00,CLR,,0.00,WeatherDisplay:10.37,2013-09-13 21:59:00,
2013-09-13 15:04:00,87.4,59.4,29.83,WNW,301,9.0,12.0,39,0.00,CLR,,0.00,WeatherDisplay:10.37,2013-09-13 22:04:00,
2013-09-13 15:09:00,87.2,59.2,29.83,WNW,299,10.0,10.3,39,0.00,CLR,,0.00,WeatherDisplay:10.37,2013-09-13 22:09:00,
2013-09-13 15:14:00,87.4,59.4,29.83,NW,308,8.0,14.0,39,0.00,CLR,,0.00,WeatherDisplay:10.37,2013-09-13 22:14:00,
2013-09-13 15:19:00,87.5,60.9,29.83,NW,306,11.5,11.5,41,0.00,CLR,,0.00,WeatherDisplay:10.37,2013-09-13 22:19:00,
2013-09-13 15:24:00,87.9,60.6,29.83,WNW,283,12.7,12.7,40,0.00,CLR,,0.00,WeatherDisplay:10.37,2013-09-13 22:24:00,
2013-09-13 15:29:00,87.8,59.8,29.82,WNW,296,9.0,14.0,39,0.00,CLR,,0.00,WeatherDisplay:10.37,2013-09-13 22:29:00,
2013-09-13 15:34:00,87.6,59.6,29.82,WNW,302,13.8,13.8,39,0.00,CLR,,0.00,WeatherDisplay:10.37,2013-09-13 22:34:00,
2013-09-13 15:39:00,87.5,59.5,29.82,NW,315,11.5,11.5,39,0.00,CLR,,0.00,WeatherDisplay:10.37,2013-09-13 22:39:00,
2013-09-13 15:44:00,87.4,60.1,29.82,WNW,299,9.0,16.0,40,0.00,CLR,,0.00,WeatherDisplay:10.37,2013-09-13 22:44:00,
2013-09-13 15:49:00,87.3,59.3,29.82,WNW,296,10.0,14.0,39,0.00,CLR,,0.00,WeatherDisplay:10.37,2013-09-13 22:49:00,
2013-09-13 15:54:00,87.4,58.7,29.82,WNW,287,12.7,12.7,38,0.00,CLR,,0.00,WeatherDisplay:10.37,2013-09-13 22:54:00,
2013-09-13 15:59:00,87.3,60.0,29.82,WNW,292,8.0,13.0,40,0.00,CLR,,0.00,WeatherDisplay:10.37,2013-09-13 22:59:00,
2013-09-13 16:04:00,87.4,58.7,29.81,WNW,286,10.0,14.0,38,0.00,CLR,,0.00,WeatherDisplay:10.37,2013-09-13 23:04:00,
2013-09-13 16:09:00,87.6,58.8,29.81,WNW,286,12.0,13.0,38,0.00,CLR,,0.00,WeatherDisplay:10.37,2013-09-13 23:09:00,
2013-09-13 16:14:00,87.4,59.4,29.81,West,274,12.7,12.7,39,0.00,CLR,,0.00,WeatherDisplay:10.37,2013-09-13 23:14:00,
2013-09-13 16:19:00,87.1,59.8,29.81,NW,304,11.5,11.5,40,0.00,CLR,,0.00,WeatherDisplay:10.37,2013-09-13 23:19:00,
2013-09-13 16:24:00,87.1,59.1,29.81,WNW,290,9.0,13.0,39,0.00,CLR,,0.00,WeatherDisplay:10.37,2013-09-13 23:24:00,
2013-09-13 16:29:00,87.0,59.0,29.81,WNW,295,11.5,11.5,39,0.00,CLR,,0.00,WeatherDisplay:10.37,2013-09-13 23:29:00,
2013-09-13 16:34:00,86.7,60.2,29.81,NW,310,15.0,15.0,41,0.00,CLR,,0.00,WeatherDisplay:10.37,2013-09-13 23:34:00,
2013-09-13 16:39:00,86.3,61.2,29.81,WNW,301,10.0,15.0,43,0.00,CLR,,0.00,WeatherDisplay:10.37,2013-09-13 23:39:00,
2013-09-13 16:44:00,86.1,60.3,29.81,WNW,291,12.7,12.7,42,0.00,CLR,,0.00,WeatherDisplay:10.37,2013-09-13 23:44:00,
2013-09-13 16:49:00,85.9,58.8,29.81,WNW,289,15.0,15.0,40,0.00,CLR,,0.00,WeatherDisplay:10.37,2013-09-13 23:49:00,
2013-09-13 16:54:00,86.1,59.7,29.81,WNW,302,9.0,14.0,41,0.00,CLR,,0.00,WeatherDisplay:10.37,2013-09-13 23:54:00,
2013-09-13 16:59:00,85.9,60.8,29.80,WNW,287,16.0,16.0,43,0.00,CLR,,0.00,WeatherDisplay:10.37,2013-09-13 23:59:00,
2013-09-13 17:04:00,85.5,61.1,29.80,WNW,296,12.0,16.0,44,0.00,CLR,,0.00,WeatherDisplay:10.37,2013-09-14 00:04:00,
2013-09-13 17:09:00,85.5,61.7,29.80,WNW,300,12.0,16.0,45,0.00,CLR,,0.00,WeatherDisplay:10.37,2013-09-14 00:09:00,
2013-09-13 17:14:00,84.9,61.8,29.80,WNW,297,10.0,15.0,46,0.00,CLR,,0.00,WeatherDisplay:10.37,2013-09-14 00:14:00,
2013-09-13 17:19:00,84.4,61.4,29.80,WNW,296,12.0,18.0,46,0.00,CLR,,0.00,WeatherDisplay:10.37,2013-09-14 00:19:00,
2013-09-13 17:24:00,84.1,62.3,29.80,West,280,13.8,13.8,48,0.00,CLR,,0.00,WeatherDisplay:10.37,2013-09-14 00:24:00,
2013-09-13 17:29:00,84.0,62.2,29.80,WNW,291,13.8,13.8,48,0.00,CLR,,0.00,WeatherDisplay:10.37,2013-09-14 00:29:00,
2013-09-13 17:34:00,83.6,62.4,29.79,WNW,294,14.0,20.0,49,0.00,CLR,,0.00,WeatherDisplay:10.37,2013-09-14 00:34:00,
2013-09-13 17:39:00,83.4,62.2,29.79,WNW,296,18.4,18.4,49,0.00,CLR,,0.00,WeatherDisplay:10.37,2013-09-14 00:39:00,
2013-09-13 17:44:00,83.4,62.2,29.80,WNW,302,17.3,17.3,49,0.00,CLR,,0.00,WeatherDisplay:10.37,2013-09-14 00:44:00,
2013-09-13 17:49:00,83.0,61.9,29.80,WNW,295,14.0,20.0,49,0.00,CLR,,0.00,WeatherDisplay:10.37,2013-09-14 00:49:00,
2013-09-13 17:54:00,82.7,62.2,29.80,WNW,300,19.6,19.6,50,0.00,CLR,,0.00,WeatherDisplay:10.37,2013-09-14 00:54:00,
2013-09-13 17:59:00,82.5,61.9,29.79,WNW,296,12.0,20.0,50,0.00,CLR,,0.00,WeatherDisplay:10.37,2013-09-14 00:59:00,
2013-09-13 18:04:00,82.1,62.2,29.79,WNW,297,15.0,20.0,51,0.00,CLR,,0.00,WeatherDisplay:10.37,2013-09-14 01:04:00,
2013-09-13 18:09:00,81.7,62.4,29.79,WNW,291,17.3,17.3,52,0.00,CLR,,0.00,WeatherDisplay:10.37,2013-09-14 01:09:00,
2013-09-13 18:14:00,81.4,62.1,29.79,WNW,295,13.0,18.0,52,0.00,CLR,,0.00,WeatherDisplay:10.37,2013-09-14 01:14:00,
2013-09-13 18:19:00,81.1,62.3,29.79,WNW,298,12.0,18.0,53,0.00,CLR,,0.00,WeatherDisplay:10.37,2013-09-14 01:19:00,
2013-09-13 18:24:00,80.7,62.5,29.79,WNW,289,15.0,15.0,54,0.00,CLR,,0.00,WeatherDisplay:10.37,2013-09-14 01:24:00,
2013-09-13 18:29:00,80.4,62.2,29.79,WNW,294,13.0,18.0,54,0.00,CLR,,0.00,WeatherDisplay:10.37,2013-09-14 01:29:00,
2013-09-13 18:34:00,80.0,62.4,29.79,WNW,302,18.4,18.4,55,0.00,CLR,,0.00,WeatherDisplay:10.37,2013-09-14 01:34:00,
2013-09-13 18:39:00,79.7,62.1,29.79,WNW,303,16.0,16.0,55,0.00,CLR,,0.00,WeatherDisplay:10.37,2013-09-14 01:39:00,
2013-09-13 18:44:00,79.4,62.4,29.79,WNW,292,14.0,18.0,56,0.00,CLR,,0.00,WeatherDisplay:10.37,2013-09-14 01:44:00,
2013-09-13 18:49:00,79.0,62.5,29.78,WNW,294,15.0,15.0,57,0.00,CLR,,0.00,WeatherDisplay:10.37,2013-09-14 01:49:00,
2013-09-13 18:54:00,78.6,62.1,29.78,WNW,300,16.1,16.1,57,0.00,CLR,,0.00,WeatherDisplay:10.37,2013-09-14 01:54:00,
2013-09-13 18:59:00,78.2,62.2,29.79,WNW,289,14.0,17.0,58,0.00,CLR,,0.00,WeatherDisplay:10.37,2013-09-14 01:59:00,
2013-09-13 19:04:00,77.7,62.3,29.79,WNW,290,12.0,16.0,59,0.00,CLR,,0.00,WeatherDisplay:10.37,2013-09-14 02:04:00,
2013-09-13 19:09:00,77.3,62.3,29.79,WNW,287,15.0,15.0,60,0.00,CLR,,0.00,WeatherDisplay:10.37,2013-09-14 02:09:00,
2013-09-13 19:14:00,77.0,62.0,29.79,WNW,293,10.0,16.0,60,0.00,CLR,,0.00,WeatherDisplay:10.37,2013-09-14 02:14:00,
2013-09-13 19:19:00,76.6,62.6,29.79,WNW,294,10.0,16.0,62,0.00,CLR,,0.00,WeatherDisplay:10.37,2013-09-14 02:19:00,
2013-09-13 19:24:00,76.2,62.2,29.79,WNW,298,12.7,12.7,62,0.00,CLR,,0.00,WeatherDisplay:10.37,2013-09-14 02:24:00,
2013-09-13 19:29:00,75.9,62.4,29.79,West,280,13.8,13.8,63,0.00,CLR,,0.00,WeatherDisplay:10.37,2013-09-14 02:29:00,
2013-09-13 19:34:00,75.5,62.5,29.79,WNW,283,13.8,13.8,64,0.00,CLR,,0.00,WeatherDisplay:10.37,2013-09-14 02:34:00,
2013-09-13 19:39:00,75.4,62.4,29.79,WNW,288,12.7,12.7,64,0.00,CLR,,0.00,WeatherDisplay:10.37,2013-09-14 02:39:00,
2013-09-13 19:44:00,75.0,62.4,29.79,WNW,291,10.0,14.0,65,0.00,CLR,,0.00,WeatherDisplay:10.37,2013-09-14 02:44:00,
2013-09-13 19:49:00,74.5,62.4,29.80,WNW,301,11.5,11.5,66,0.00,CLR,,0.00,WeatherDisplay:10.37,2013-09-14 02:49:00,
2013-09-13 19:54:00,74.2,62.1,29.80,WNW,302,10.0,14.0,66,0.00,CLR,,0.00,WeatherDisplay:10.37,2013-09-14 02:54:00,
2013-09-13 19:59:00,74.1,62.4,29.80,WNW,299,15.0,15.0,67,0.00,CLR,,0.00,WeatherDisplay:10.37,2013-09-14 02:59:00,
2013-09-13 20:04:00,74.0,61.9,29.80,WNW,301,13.8,13.8,66,0.00,CLR,,0.00,WeatherDisplay:10.37,2013-09-14 03:04:00,
2013-09-13 20:09:00,74.0,61.9,29.80,WNW,300,12.0,15.0,66,0.00,CLR,,0.00,WeatherDisplay:10.37,2013-09-14 03:09:00,
2013-09-13 20:14:00,74.0,61.9,29.80,WNW,301,10.0,16.0,66,0.00,CLR,,0.00,WeatherDisplay:10.37,2013-09-14 03:14:00,
2013-09-13 20:19:00,73.8,61.7,29.81,WNW,291,13.8,13.8,66,0.00,CLR,,0.00,WeatherDisplay:10.37,2013-09-14 03:19:00,
2013-09-13 20:24:00,73.8,61.7,29.80,WNW,299,9.0,15.0,66,0.00,CLR,,0.00,WeatherDisplay:10.37,2013-09-14 03:24:00,
2013-09-13 20:29:00,73.4,61.3,29.80,West,278,11.5,11.5,66,0.00,CLR,,0.00,WeatherDisplay:10.37,2013-09-14 03:29:00,
2013-09-13 20:34:00,73.5,61.4,29.81,West,278,12.7,12.7,66,0.00,CLR,,0.00,WeatherDisplay:10.37,2013-09-14 03:34:00,
2013-09-13 20:39:00,73.1,61.5,29.81,West,278,12.7,12.7,67,0.00,CLR,,0.00,WeatherDisplay:10.37,2013-09-14 03:39:00,
2013-09-13 20:44:00,72.7,61.5,29.81,West,275,10.4,10.4,68,0.00,CLR,,0.00,WeatherDisplay:10.37,2013-09-14 03:44:00,
2013-09-13 20:49:00,72.7,61.1,29.81,West,274,11.0,11.0,67,0.00,CLR,,0.00,WeatherDisplay:10.37,2013-09-14 03:49:00,
2013-09-13 20:54:00,72.6,61.0,29.81,WNW,286,7.0,13.0,67,0.00,CLR,,0.00,WeatherDisplay:10.37,2013-09-14 03:54:00,
2013-09-13 20:59:00,72.3,60.7,29.81,West,276,10.0,10.0,67,0.00,CLR,,0.00,WeatherDisplay:10.37,2013-09-14 03:59:00,
2013-09-13 21:01:00,72.3,60.7,29.81,WNW,282,9.2,9.2,67,0.00,CLR,,0.00,WeatherDisplay:10.37,2013-09-14 04:01:00,
2013-09-13 21:02:00,72.3,61.1,29.81,West,274,9.2,9.2,68,0.00,CLR,,0.00,WeatherDisplay:10.37,2013-09-14 04:02:00,
2013-09-13 21:07:00,72.1,61.0,29.81,WNW,284,10.4,10.4,68,0.00,CLR,,0.00,WeatherDisplay:10.37,2013-09-14 04:07:00,
2013-09-13 21:12:00,71.8,61.1,29.81,WNW,287,10.4,10.4,69,0.00,CLR,,0.00,WeatherDisplay:10.37,2013-09-14 04:12:00,
2013-09-13 21:17:00,71.5,61.2,29.82,West,272,10.0,10.0,70,0.00,CLR,,0.00,WeatherDisplay:10.37,2013-09-14 04:17:00,
2013-09-13 21:22:00,71.4,61.1,29.81,WNW,286,11.5,11.5,70,0.00,CLR,,0.00,WeatherDisplay:10.37,2013-09-14 04:22:00,
2013-09-13 21:27:00,71.2,61.3,29.81,West,274,11.5,11.5,71,0.00,CLR,,0.00,WeatherDisplay:10.37,2013-09-14 04:27:00,
2013-09-13 21:32:00,70.8,61.3,29.81,West,279,11.5,11.5,72,0.00,CLR,,0.00,WeatherDisplay:10.37,2013-09-14 04:32:00,
2013-09-13 21:37:00,70.4,61.3,29.82,West,274,11.5,11.5,73,0.00,CLR,,0.00,WeatherDisplay:10.37,2013-09-14 04:37:00,
2013-09-13 21:42:00,70.3,61.2,29.82,WNW,295,10.4,10.4,73,0.00,CLR,,0.00,WeatherDisplay:10.37,2013-09-14 04:42:00,
2013-09-13 21:47:00,70.4,61.3,29.81,West,279,13.0,13.0,73,0.00,CLR,,0.00,WeatherDisplay:10.37,2013-09-14 04:47:00,
2013-09-13 21:52:00,70.5,61.4,29.81,WNW,286,13.8,13.8,73,0.00,CLR,,0.00,WeatherDisplay:10.37,2013-09-14 04:52:00,
2013-09-13 21:57:00,70.6,61.1,29.82,WNW,289,10.4,10.4,72,0.00,CLR,,0.00,WeatherDisplay:10.37,2013-09-14 04:57:00,
2013-09-13 22:02:00,70.6,60.7,29.82,West,277,10.4,10.4,71,0.00,CLR,,0.00,WeatherDisplay:10.37,2013-09-14 05:02:00,
2013-09-13 22:07:00,70.5,61.0,29.81,West,275,10.4,10.4,72,0.00,CLR,,0.00,WeatherDisplay:10.37,2013-09-14 05:07:00,
2013-09-13 22:12:00,70.4,60.9,29.82,West,271,12.0,12.0,72,0.00,CLR,,0.00,WeatherDisplay:10.37,2013-09-14 05:12:00,
2013-09-13 22:17:00,70.4,60.9,29.82,WNW,290,10.4,10.4,72,0.00,CLR,,0.00,WeatherDisplay:10.37,2013-09-14 05:17:00,
2013-09-13 22:22:00,70.3,60.4,29.82,West,259,9.2,9.2,71,0.00,CLR,,0.00,WeatherDisplay:10.37,2013-09-14 05:22:00,
2013-09-13 22:27:00,70.1,60.7,29.82,WSW,256,4.6,4.6,72,0.00,CLR,,0.00,WeatherDisplay:10.37,2013-09-14 05:27:00,
2013-09-13 22:32:00,69.7,60.7,29.82,West,273,6.9,6.9,73,0.00,CLR,,0.00,WeatherDisplay:10.37,2013-09-14 05:32:00,
2013-09-13 22:37:00,69.1,60.8,29.82,SW,234,5.8,5.8,75,0.00,CLR,,0.00,WeatherDisplay:10.37,2013-09-14 05:37:00,
2013-09-13 22:42:00,69.2,59.8,29.83,SSW,198,3.5,3.5,72,0.00,CLR,,0.00,WeatherDisplay:10.37,2013-09-14 05:42:00,
2013-09-13 22:47:00,69.5,59.3,29.82,SSW,199,5.8,5.8,70,0.00,CLR,,0.00,WeatherDisplay:10.37,2013-09-14 05:47:00,
2013-09-13 22:52:00,69.8,59.2,29.83,SSW,211,3.5,3.5,69,0.00,CLR,,0.00,WeatherDisplay:10.37,2013-09-14 05:52:00,
2013-09-13 22:57:00,70.1,59.0,29.83,SW,214,3.5,3.5,68,0.00,CLR,,0.00,WeatherDisplay:10.37,2013-09-14 05:57:00,
2013-09-13 23:02:00,70.4,58.9,29.83,SW,229,4.6,4.6,67,0.00,CLR,,0.00,WeatherDisplay:10.37,2013-09-14 06:02:00,
2013-09-13 23:07:00,70.6,58.7,29.82,SSW,208,4.6,4.6,66,0.00,CLR,,0.00,WeatherDisplay:10.37,2013-09-14 06:07:00,
2013-09-13 23:12:00,70.8,58.9,29.82,SW,222,5.8,5.8,66,0.00,CLR,,0.00,WeatherDisplay:10.37,2013-09-14 06:12:00,
2013-09-13 23:17:00,71.2,59.3,29.82,WSW,242,5.0,5.0,66,0.00,CLR,,0.00,WeatherDisplay:10.37,2013-09-14 06:17:00,
2013-09-13 23:22:00,71.7,59.3,29.82,SW,236,9.2,9.2,65,0.00,CLR,,0.00,WeatherDisplay:10.37,2013-09-14 06:22:00,
2013-09-13 23:27:00,71.8,59.4,29.82,WSW,241,5.0,5.0,65,0.00,CLR,,0.00,WeatherDisplay:10.37,2013-09-14 06:27:00,
2013-09-13 23:32:00,71.8,59.4,29.82,SW,218,5.8,5.8,65,0.00,CLR,,0.00,WeatherDisplay:10.37,2013-09-14 06:32:00,
2013-09-13 23:37:00,71.7,59.3,29.83,SW,234,10.4,10.4,65,0.00,CLR,,0.00,WeatherDisplay:10.37,2013-09-14 06:37:00,
2013-09-13 23:42:00,71.6,59.2,29.82,SW,232,4.0,4.0,65,0.00,CLR,,0.00,WeatherDisplay:10.37,2013-09-14 06:42:00,
2013-09-13 23:47:00,71.1,59.2,29.82,SW,223,5.8,5.8,66,0.00,CLR,,0.00,WeatherDisplay:10.37,2013-09-14 06:47:00,
2013-09-13 23:52:00,70.4,59.3,29.82,SW,230,8.1,8.1,68,0.00,CLR,,0.00,WeatherDisplay:10.37,2013-09-14 06:52:00,
2013-09-13 23:57:00,69.8,59.2,29.82,SSW,212,4.6,4.6,69,0.00,CLR,,0.00,WeatherDisplay:10.37,2013-09-14 06:57:00,